(338116) = 2002 QP62 = 2007 RG143

Discovered at Palomar on 2002-08-28 by NEAT.

Orbit

Orbit type: Main Belt

Note: WebGL enabled browser required.

epoch2024-03-31.0
epoch JD2460400.5
perihelion date2022-08-10.71451
perihelion JD2459802.21451
argument of perihelion (°)73.46846
ascending node (°)323.12027
inclination (°)8.26398
eccentricity0.1429643
perihelion distance (AU)2.4454325
Tisserand w.r.t. Jupiter3.3
ΔV w.r.t. Earth (km/sec)10.1
semimajor axis (AU)2.8533614
mean anomaly (°)122.34244
mean daily motion (°/day)0.20448840
aphelion distance (AU)3.261
period (years)4.82
P-vector [x]0.79696072
P-vector [y]0.48476451
P-vector [z]0.36035674
Q-vector [x]-0.59784010
Q-vector [y]0.71824136
Q-vector [z]0.35597269
absolute magnitude16.27
phase slope0.15
uncertainty0
referenceMPEC 2024-C93
observations used292
oppositions12
arc length (days)7845
first opposition used2002
last opposition used2024
residual rms (arc-secs)0.71
perturbers coarse indicatorM-v
perturbers precise indicator003Ek
first observation date used2002-08-17.0
last observation date used2024-02-08.0
computer nameMPCLINUX
JD of orbit computation2456819.581288
perihelion JD uncertainty (days)3.8149E-04
argument of perihelion uncertainty (°)1.0688E-04
ascending node uncertainty (°)4.1671E-05
inclination uncertainty (°)9.9956E-06
eccentricity uncertainty 1.1784E-07
perihelion distance uncertainty (AU)3.1766E-07
Minimum Orbit Intersection Distances (in AU)
for orbit epoch: 2460400.5, reference: E2024-G04
Mercury2.12511
Venus1.73753
Earth1.46776
Mars1.00438
Jupiter2.23891
Saturn6.30585
Uranus15.3189
Neptune27.3838

Observations

297 total observations over interval: 2002 08 17.42608 – 2024 02 08.563372
These data are available for download (format description).

Date (UT) J2000 RA J2000 Dec Magn Location Ref
2002 08 17.42608 22 20 18.95 -08 42 22.3 19.6 R 644 – Palomar Mountain/NEAT MPS 107379
2002 08 17.44017 22 20 18.18 -08 42 23.5 19.5 R 644 – Palomar Mountain/NEAT MPS 107379
2002 08 17.45294 22 20 17.51 -08 42 24.5 19.3 R 644 – Palomar Mountain/NEAT MPS 107379
2002 08 28.17979 22 10 40.96 -08 58 37.0 19.5 R 644 – Palomar Mountain/NEAT MPS 107379
2002 08 28.20090 22 10 39.82 -08 58 39.1 19.8 R 644 – Palomar Mountain/NEAT MPS 107379
2002 08 28.24186 22 10 37.49 -08 58 43.1 19.7 R 644 – Palomar Mountain/NEAT MPS 107379
2002 08 28.26315 22 10 36.30 -08 58 45.4 19.5 R 644 – Palomar Mountain/NEAT MPS 107379
2002 08 28.32000 22 10 33.12 -08 58 50.7 19.2 R 644 – Palomar Mountain/NEAT MPS 107379
2002 08 28.32718 22 10 32.70 -08 58 51.2 19.0 R 644 – Palomar Mountain/NEAT MPS 107379
2002 09 14.19433 21 56 24.48 -09 22 44.1 19.5 R 644 – Palomar Mountain/NEAT MPS 107379
2002 09 14.21544 21 56 23.53 -09 22 45.7 20.2 R 644 – Palomar Mountain/NEAT MPS 107379
2002 09 14.23657 21 56 22.59 -09 22 46.8 20.1 R 644 – Palomar Mountain/NEAT MPS 107379
2007 08 23.39993 23 39 17.70 +03 21 47.5 19.8 V 691 – Steward Observatory, Kitt Peak-Spacewatch MPS 216073
2007 08 23.41753 23 39 16.98 +03 21 47.6 20.1 V 691 – Steward Observatory, Kitt Peak-Spacewatch MPS 216073
2007 08 23.43511 23 39 16.22 +03 21 48.4 20.0 V 691 – Steward Observatory, Kitt Peak-Spacewatch MPS 216073
2007 09 14.24033 23 21 43.15 +03 00 26.8 19.8   704 – Lincoln Laboratory ETS, New Mexico MPS 216491
2007 09 14.25202 23 21 42.48 +03 00 24.4 20.4   704 – Lincoln Laboratory ETS, New Mexico MPS 216491
2007 09 14.26371 23 21 41.85 +03 00 22.9 20.5   704 – Lincoln Laboratory ETS, New Mexico MPS 216491
2007 09 14.27546 23 21 41.20 +03 00 21.6 20.0   704 – Lincoln Laboratory ETS, New Mexico MPS 216491
2007 09 17.24815 23 19 02.62 +02 53 40.5 19.6   704 – Lincoln Laboratory ETS, New Mexico MPS 216491
2007 09 17.26008 23 19 02.02 +02 53 38.3 20.0   704 – Lincoln Laboratory ETS, New Mexico MPS 216491
2007 09 17.28406 23 19 00.61 +02 53 35.6 19.9   704 – Lincoln Laboratory ETS, New Mexico MPS 216491
2007 10 07.20050 23 03 22.78 +02 02 31.2 19.9 V 703 – Catalina Sky Survey MPS 218524
2007 10 07.20745 23 03 22.42 +02 02 29.1 20.0 V 703 – Catalina Sky Survey MPS 218524
2007 10 07.21442 23 03 22.24 +02 02 28.0 19.9 V 703 – Catalina Sky Survey MPS 218524
2007 10 07.22138 23 03 21.81 +02 02 27.7 19.4 V 703 – Catalina Sky Survey MPS 218524
2007 10 09.19640 23 02 10.57 +01 57 43.6 20.0   704 – Lincoln Laboratory ETS, New Mexico MPS 218524
2007 10 09.21826 23 02 09.76 +01 57 41.6 20.7   704 – Lincoln Laboratory ETS, New Mexico MPS 218524
2007 10 09.22918 23 02 09.36 +01 57 40.9 20.6   704 – Lincoln Laboratory ETS, New Mexico MPS 218524
2007 10 09.24029 23 02 08.93 +01 57 39.2 20.2   704 – Lincoln Laboratory ETS, New Mexico MPS 218524
2007 10 12.24448 23 00 31.14 +01 50 58.9 19.8 V G96 – Mt. Lemmon Survey MPS 220312
2007 10 12.25243 23 00 30.85 +01 50 58.1 19.7 V G96 – Mt. Lemmon Survey MPS 220312
2007 10 12.26044 23 00 30.60 +01 50 57.0 19.7 V G96 – Mt. Lemmon Survey MPS 220312
2007 10 12.26840 23 00 30.34 +01 50 56.0 19.7 V G96 – Mt. Lemmon Survey MPS 220312
2007 10 15.14587 22 59 09.41 +01 45 10.8 20.2 C 704 – Lincoln Laboratory ETS, New Mexico MPS 287946
2007 10 15.15723 22 59 08.96 +01 45 05.1 19.4 C 704 – Lincoln Laboratory ETS, New Mexico MPS 287946
2007 10 15.18002 22 59 08.54 +01 45 05.3 19.3 C 704 – Lincoln Laboratory ETS, New Mexico MPS 287946
2007 10 15.19132 22 59 08.07 +01 45 05.5 19.1 C 704 – Lincoln Laboratory ETS, New Mexico MPS 287946
2008 12 29.27831 08 34 34.10 +24 47 04.2 20.1 V G96 – Mt. Lemmon Survey MPS 271735
2008 12 29.27887 08 34 34.03 +24 47 04.2 20.2 V G96 – Mt. Lemmon Survey MPS 271735
2008 12 29.28560 08 34 33.74 +24 47 04.9 20.1 V G96 – Mt. Lemmon Survey MPS 271735
2008 12 29.28616 08 34 33.70 +24 47 04.8 20.1 V G96 – Mt. Lemmon Survey MPS 271735
2008 12 29.29293 08 34 33.42 +24 47 05.1 20.0 V G96 – Mt. Lemmon Survey MPS 271735
2008 12 29.29348 08 34 33.38 +24 47 05.4 20.2 V G96 – Mt. Lemmon Survey MPS 271735
2008 12 29.30027 08 34 33.06 +24 47 05.8 20.0 V G96 – Mt. Lemmon Survey MPS 271735
2008 12 29.30082 08 34 33.02 +24 47 05.8 19.9 V G96 – Mt. Lemmon Survey MPS 271735
2009 01 01.36063 08 32 05.04 +24 50 47.2 20.2 V 691 – Steward Observatory, Kitt Peak-Spacewatch MPS 271735
2009 01 01.37880 08 32 04.00 +24 50 47.9 19.6 V 691 – Steward Observatory, Kitt Peak-Spacewatch MPS 271735
2009 01 01.39441 08 32 03.29 +24 50 50.3 21.0 V 691 – Steward Observatory, Kitt Peak-Spacewatch MPS 271735
2009 01 18.41351 08 15 37.84 +25 06 24.5   291 – LPL/Spacewatch II MPS 272327
2009 01 18.41958 08 15 37.43 +25 06 24.7   291 – LPL/Spacewatch II MPS 272327
2009 01 18.42567 08 15 37.05 +25 06 24.8   291 – LPL/Spacewatch II MPS 272327
2009 01 26.17006 08 07 38.17 +25 07 36.3 19.9 V G96 – Mt. Lemmon Survey MPS 272327
2009 01 26.17553 08 07 37.84 +25 07 36.4 19.8 V G96 – Mt. Lemmon Survey MPS 272327
2009 01 26.18107 08 07 37.52 +25 07 36.5 19.9 V G96 – Mt. Lemmon Survey MPS 272327
2009 01 26.18660 08 07 37.16 +25 07 36.1 19.9 V G96 – Mt. Lemmon Survey MPS 272327
2009 02 03.11742 07 59 56.90 +25 03 28.3 19.9 V 691 – Steward Observatory, Kitt Peak-Spacewatch MPS 272327
2009 02 03.13555 07 59 55.87 +25 03 27.6 20.0 V 691 – Steward Observatory, Kitt Peak-Spacewatch MPS 272327
2009 02 03.15393 07 59 54.84 +25 03 26.8 20.1 V 691 – Steward Observatory, Kitt Peak-Spacewatch MPS 272327
2009 02 14.12766 07 51 08.39 +24 48 41.7 20.4 V 691 – Steward Observatory, Kitt Peak-Spacewatch MPS 276459
2009 02 14.14785 07 51 07.55 +24 48 40.0 20.4 V 691 – Steward Observatory, Kitt Peak-Spacewatch MPS 276459
2009 02 14.16460 07 51 06.81 +24 48 38.0 20.1 V 691 – Steward Observatory, Kitt Peak-Spacewatch MPS 276459
2012 09 20.05076 00 55 22.50 +16 40 39.0   621 – Bergisch Gladbach MPS 431853
2012 09 20.06308 00 55 21.90 +16 40 39.2   621 – Bergisch Gladbach MPS 431853
2012 09 20.07539 00 55 21.34 +16 40 39.0 19.1 R 621 – Bergisch Gladbach MPS 431853
2012 09 25.38423 00 51 05.61 +16 38 19.5 19.6 V 703 – Catalina Sky Survey MPS 433311
2012 09 25.38881 00 51 05.36 +16 38 18.3 19.5 V 703 – Catalina Sky Survey MPS 433311
2012 09 25.39335 00 51 05.14 +16 38 18.6 19.5 V 703 – Catalina Sky Survey MPS 433311
2012 09 25.39796 00 51 04.89 +16 38 18.4 19.7 V 703 – Catalina Sky Survey MPS 433311
2012 09 26.385893 00 50 15.235 +16 37 18.06 19.2 i F51 – Pan-STARRS 1, Haleakala MPS 433311
2012 09 26.398186 00 50 14.582 +16 37 17.23 19.1 i F51 – Pan-STARRS 1, Haleakala MPS 433311
2012 10 06.20958 00 41 34.51 +16 18 06.1 19.1 V 703 – Catalina Sky Survey MPS 434091
2012 10 06.21747 00 41 34.11 +16 18 04.8 19.7 V 703 – Catalina Sky Survey MPS 434091
2012 10 06.23207 00 41 33.25 +16 18 01.1 18.7 V 703 – Catalina Sky Survey MPS 434091
2012 10 09.348570 00 38 45.610 +16 08 53.79 19.3 w F51 – Pan-STARRS 1, Haleakala MPS 434984
2012 10 09.362684 00 38 44.823 +16 08 51.19 19.2 w F51 – Pan-STARRS 1, Haleakala MPS 434984
2012 10 09.376901 00 38 44.031 +16 08 48.52 19.2 w F51 – Pan-STARRS 1, Haleakala MPS 434984
2012 10 09.391185 00 38 43.233 +16 08 45.83 19.1 w F51 – Pan-STARRS 1, Haleakala MPS 434984
2012 10 14.23785 00 34 28.35 +15 52 10.8 19.8   704 – Lincoln Laboratory ETS, New Mexico MPS 434984
2012 10 14.25237 00 34 27.55 +15 52 07.2 19.8   704 – Lincoln Laboratory ETS, New Mexico MPS 434984
2012 10 14.26629 00 34 26.97 +15 52 04.2 19.8   704 – Lincoln Laboratory ETS, New Mexico MPS 434984
2012 10 14.28012 00 34 26.13 +15 52 00.2 19.7   704 – Lincoln Laboratory ETS, New Mexico MPS 434984
2014 02 06.31360 09 21 40.19 +16 46 23.9 20.0 V G96 – Mt. Lemmon Survey MPS 500920
2014 02 06.32299 09 21 39.64 +16 46 24.7 20.2 V G96 – Mt. Lemmon Survey MPS 500920
2014 02 06.33017 09 21 39.22 +16 46 25.8 20.0 V G96 – Mt. Lemmon Survey MPS 500920
2014 02 06.33735 09 21 38.78 +16 46 26.5 20.1 V G96 – Mt. Lemmon Survey MPS 500920
2014 02 08.19554 09 19 51.18 +16 49 31.5 20.2 V 691 – Steward Observatory, Kitt Peak-Spacewatch MPS 501577
2014 02 08.21072 09 19 50.25 +16 49 33.3 20.2 V 691 – Steward Observatory, Kitt Peak-Spacewatch MPS 501577
2014 02 08.22590 09 19 49.37 +16 49 34.4 20.1 V 691 – Steward Observatory, Kitt Peak-Spacewatch MPS 501577
